contact:dominique.lefevre@mio.osupytheas.fr, maurice.libes@osupytheas.fr, didier.mallarino@osupytheas.fr
Project:EMSO http://www.emso-fr.org/EMSO-France
Depth: 2436.0 m
Title:EMSO Ligure Ouest : Data MII capteur AQUADOPP
Date,Latitude,Longitude,X_East,Y_North,Z_Up,Amplitude_X,Amplitude_Y,Amplitude_Z,Batterie,SoundSpeed,Heading,Pitch,Roll,Pressure,TIS,Speed,Direction
, degrees North, degrees East, m.s-1, m.s-1,m.s-1, 1, 1, 1, Volt, m.s-1, degree, degree, degree, dbar, degree_C, m.s-1, degree
2021-08-17T00:04:03,42.805,6.029,0.032,-0.02,-0.022,107.0,106.0,103.0,13.4,1505.2,327.2,-0.8,1.8,2470.536,13.28,0.037,122.0
2021-08-17T00:07:03,42.805,6.029,0.052,-0.027,0.002,107.0,106.0,103.0,13.4,1505.2,328.4,-0.8,1.8,2470.521,13.28,0.058,117.4
2021-08-17T00:10:03,42.805,6.029,0.033,-0.019,0.0,106.0,106.0,103.0,13.4,1505.2,328.1,-0.7,1.8,2470.575,13.28,0.038,119.9
2021-08-17T00:13:03,42.805,6.029,0.019,-0.018,-0.021,105.0,108.0,104.0,13.4,1505.2,328.1,-0.7,1.8,2470.516,13.28,0.026,133.5
2021-08-17T00:16:03,42.805,6.029,0.041,-0.025,0.0,106.0,105.0,104.0,13.3,1505.2,329.4,-0.8,1.8,2470.534,13.28,0.048,121.4
2021-08-17T00:19:03,42.805,6.029,0.021,-0.032,-0.018,106.0,106.0,102.0,13.4,1505.2,329.2,-0.7,1.8,2470.526,13.28,0.038,146.7
2021-08-17T00:22:03,42.805,6.029,0.04,-0.029,0.021,105.0,105.0,104.0,13.4,1505.2,326.8,-0.7,1.9,2470.484,13.28,0.049,125.9
2021-08-17T00:25:03,42.805,6.029,0.039,-0.024,-0.002,106.0,107.0,103.0,13.4,1505.2,329.2,-0.7,1.8,2470.518,13.28,0.045,121.6
2021-08-17T00:28:03,42.805,6.029,0.023,-0.03,-0.005,107.0,105.0,103.0,13.4,1505.2,325.8,-0.8,1.8,2470.522,13.28,0.037,142.5
2021-08-17T00:31:03,42.805,6.029,0.044,-0.027,0.005,106.0,107.0,104.0,13.4,1505.2,325.8,-0.7,1.8,2470.516,13.28,0.051,121.5
2021-08-17T00:34:03,42.805,6.029,0.031,-0.031,-0.045,107.0,106.0,104.0,13.3,1505.2,329.6,-0.7,1.8,2470.553,13.28,0.043,135.0
2021-08-17T00:37:03,42.805,6.029,0.044,-0.043,-0.012,105.0,107.0,102.0,13.4,1505.2,330.9,-0.8,1.8,2470.58,13.28,0.061,134.3
2021-08-17T00:40:03,42.805,6.029,0.031,-0.024,0.005,107.0,105.0,104.0,13.3,1505.2,327.4,-0.8,1.8,2470.5,13.28,0.039,127.7
2021-08-17T00:43:03,42.805,6.029,0.04,-0.017,0.015,106.0,106.0,104.0,13.4,1505.2,327.0,-0.8,1.8,2470.514,13.28,0.043,113.0
2021-08-17T00:46:03,42.805,6.029,0.027,-0.016,0.016,105.0,106.0,103.0,13.3,1505.2,327.1,-0.7,1.8,2470.556,13.28,0.031,120.7
2021-08-17T00:49:03,42.805,6.029,0.032,-0.029,-0.028,106.0,105.0,104.0,13.4,1505.2,325.6,-0.7,1.8,2470.501,13.28,0.043,132.2
2021-08-17T00:52:03,42.805,6.029,0.048,-0.035,0.016,107.0,106.0,103.0,13.4,1505.2,325.4,-0.8,1.8,2470.536,13.28,0.059,126.1
2021-08-17T00:55:03,42.805,6.029,0.041,-0.021,-0.008,106.0,106.0,103.0,13.4,1505.2,325.4,-0.8,1.8,2470.537,13.28,0.046,117.1
2021-08-17T00:58:03,42.805,6.029,0.051,-0.035,0.0,106.0,105.0,103.0,13.3,1505.2,328.4,-0.7,1.8,2470.539,13.28,0.061,124.5
2021-08-17T01:04:03,42.805,6.029,0.038,-0.017,-0.012,107.0,107.0,103.0,13.4,1505.2,330.8,-0.8,1.8,2470.555,13.28,0.041,114.1
2021-08-17T01:07:03,42.805,6.029,0.047,-0.023,-0.016,105.0,105.0,105.0,13.4,1505.2,327.2,-0.8,1.8,2470.54,13.28,0.052,116.1
2021-08-17T01:10:03,42.805,6.029,0.034,0.002,0.004,106.0,107.0,104.0,13.3,1505.2,328.9,-0.8,1.8,2470.58,13.28,0.034,86.6
2021-08-17T01:13:03,42.805,6.029,0.032,-0.02,-0.015,106.0,106.0,104.0,13.4,1505.2,329.9,-0.7,1.8,2470.552,13.28,0.037,122.0
2021-08-17T01:16:03,42.805,6.029,0.046,-0.025,0.004,105.0,107.0,102.0,13.4,1505.2,329.7,-0.8,1.8,2470.592,13.28,0.052,118.5
2021-08-17T01:19:03,42.805,6.029,0.042,-0.022,-0.023,106.0,105.0,104.0,13.3,1505.2,329.2,-0.8,1.8,2470.534,13.28,0.047,117.6
2021-08-17T01:22:03,42.805,6.029,0.031,-0.011,-0.023,106.0,105.0,105.0,13.3,1505.2,326.3,-0.7,1.8,2470.538,13.28,0.032,109.5
2021-08-17T01:25:03,42.805,6.029,0.025,-0.023,-0.015,106.0,105.0,103.0,13.3,1505.2,329.6,-0.7,1.8,2470.549,13.28,0.033,132.6
2021-08-17T01:28:03,42.805,6.029,0.049,-0.015,0.002,105.0,106.0,104.0,13.4,1505.2,327.8,-0.7,1.8,2470.557,13.28,0.051,107.0
2021-08-17T01:31:03,42.805,6.029,0.032,-0.024,-0.017,106.0,107.0,104.0,13.4,1505.2,330.3,-0.7,1.8,2470.518,13.28,0.04,126.9
2021-08-17T01:34:03,42.805,6.029,0.013,-0.015,-0.004,106.0,106.0,103.0,13.4,1505.2,325.5,-0.8,1.8,2470.525,13.28,0.019,139.1
2021-08-17T01:37:03,42.805,6.029,0.057,-0.028,0.012,106.0,105.0,103.0,13.4,1505.2,325.1,-0.8,1.8,2470.512,13.28,0.063,116.2
2021-08-17T01:40:03,42.805,6.029,0.044,-0.026,-0.015,107.0,105.0,104.0,13.4,1505.2,326.6,-0.7,1.8,2470.561,13.28,0.051,120.6
2021-08-17T01:43:03,42.805,6.029,0.061,-0.028,0.015,104.0,107.0,104.0,13.3,1505.2,329.3,-0.7,1.8,2470.545,13.28,0.067,114.7
2021-08-17T01:46:03,42.805,6.029,0.04,-0.024,-0.014,107.0,104.0,103.0,13.4,1505.2,328.4,-0.8,1.8,2470.518,13.28,0.046,121.0
2021-08-17T01:49:03,42.805,6.029,0.05,-0.009,0.005,106.0,106.0,103.0,13.3,1505.2,329.2,-0.7,1.8,2470.537,13.28,0.05,100.2
2021-08-17T01:52:03,42.805,6.029,0.051,-0.029,0.043,106.0,106.0,103.0,13.4,1505.2,328.7,-0.7,1.8,2470.514,13.28,0.058,119.6
2021-08-17T01:55:03,42.805,6.029,0.066,-0.026,-0.014,107.0,105.0,104.0,13.4,1505.2,325.5,-0.8,1.8,2470.495,13.28,0.07,111.5
2021-08-17T01:58:03,42.805,6.029,0.033,-0.046,0.009,108.0,106.0,103.0,13.4,1505.2,329.7,-0.7,1.8,2470.518,13.28,0.056,144.3
2021-08-17T02:04:03,42.805,6.029,0.052,-0.027,-0.009,106.0,106.0,103.0,13.4,1505.2,326.9,-0.8,1.9,2470.553,13.28,0.058,117.4
2021-08-17T02:07:03,42.805,6.029,0.039,-0.036,0.012,105.0,106.0,102.0,13.4,1505.2,327.4,-0.8,1.8,2470.547,13.28,0.053,132.7
2021-08-17T02:10:03,42.805,6.029,0.058,0.003,-0.014,107.0,106.0,103.0,13.4,1505.2,326.7,-0.7,1.8,2470.525,13.28,0.058,87.0
2021-08-17T02:13:03,42.805,6.029,0.039,-0.019,0.001,106.0,105.0,103.0,13.3,1505.2,326.0,-0.8,1.8,2470.534,13.28,0.043,116.0
2021-08-17T02:16:03,42.805,6.029,0.034,-0.025,-0.023,106.0,105.0,103.0,13.3,1505.2,328.8,-0.8,1.8,2470.564,13.28,0.042,126.3
2021-08-17T02:19:03,42.805,6.029,0.052,-0.026,0.009,106.0,105.0,104.0,13.4,1505.2,328.5,-0.8,1.8,2470.535,13.28,0.058,116.6
2021-08-17T02:22:03,42.805,6.029,0.033,-0.029,-0.01,106.0,105.0,104.0,13.4,1505.2,329.2,-0.7,1.9,2470.532,13.28,0.043,131.3
2021-08-17T02:25:03,42.805,6.029,0.046,-0.031,-0.015,107.0,105.0,103.0,13.3,1505.2,327.0,-0.7,1.9,2470.505,13.28,0.055,124.0
2021-08-17T02:28:03,42.805,6.029,0.047,-0.039,0.028,104.0,106.0,103.0,13.4,1505.2,330.9,-0.8,1.8,2470.498,13.28,0.061,129.7
2021-08-17T02:31:03,42.805,6.029,0.052,-0.007,-0.006,106.0,104.0,103.0,13.4,1505.2,326.0,-0.8,1.8,2470.529,13.28,0.052,97.7
2021-08-17T02:34:03,42.805,6.029,0.032,-0.037,-0.022,107.0,105.0,104.0,13.4,1505.2,328.7,-0.8,1.8,2470.506,13.28,0.048,139.1
2021-08-17T02:37:03,42.805,6.029,0.041,-0.019,0.001,106.0,105.0,104.0,13.4,1505.2,328.6,-0.7,1.8,2470.504,13.28,0.045,114.9
2021-08-17T02:40:03,42.805,6.029,0.04,-0.014,0.028,106.0,106.0,103.0,13.3,1505.2,329.2,-0.8,1.8,2470.5,13.28,0.042,109.3
2021-08-17T02:43:03,42.805,6.029,0.047,-0.023,0.016,107.0,106.0,103.0,13.4,1505.2,326.9,-0.8,1.8,2470.496,13.28,0.052,116.1
2021-08-17T02:46:03,42.805,6.029,0.035,-0.014,-0.011,106.0,105.0,104.0,13.4,1505.2,329.7,-0.7,1.8,2470.526,13.28,0.037,111.8
2021-08-17T02:49:03,42.805,6.029,0.07,-0.018,0.025,107.0,104.0,103.0,13.4,1505.2,328.0,-0.8,1.8,2470.516,13.28,0.072,104.4
2021-08-17T02:52:03,42.805,6.029,0.034,-0.023,0.004,106.0,107.0,102.0,13.3,1505.2,329.6,-0.8,1.8,2470.545,13.28,0.041,124.1
2021-08-17T02:55:03,42.805,6.029,0.049,-0.036,-0.015,106.0,105.0,104.0,13.4,1505.2,328.6,-0.8,1.8,2470.52,13.28,0.06,126.3
2021-08-17T02:58:03,42.805,6.029,0.046,-0.021,-0.004,106.0,106.0,103.0,13.4,1505.2,325.2,-0.7,1.8,2470.558,13.28,0.05,114.5
2021-08-17T03:04:03,42.805,6.029,0.048,-0.021,0.0,106.0,107.0,103.0,13.4,1505.2,326.4,-0.8,1.8,2470.555,13.28,0.052,113.6
2021-08-17T03:07:03,42.805,6.029,0.039,-0.031,0.028,106.0,106.0,102.0,13.3,1505.2,329.8,-0.8,1.8,2470.528,13.28,0.049,128.5
2021-08-17T03:10:03,42.805,6.029,0.051,-0.035,0.006,106.0,105.0,103.0,13.4,1505.2,329.7,-0.8,1.8,2470.502,13.28,0.061,124.5
2021-08-17T03:13:03,42.805,6.029,0.042,-0.023,0.01,106.0,106.0,103.0,13.3,1505.2,328.8,-0.8,1.8,2470.526,13.28,0.047,118.7
2021-08-17T03:16:03,42.805,6.029,0.033,-0.036,-0.018,106.0,105.0,103.0,13.4,1505.2,329.1,-0.8,1.8,2470.519,13.28,0.048,137.5
2021-08-17T03:19:03,42.805,6.029,0.048,-0.029,0.003,106.0,105.0,103.0,13.4,1505.2,326.0,-0.8,1.8,2470.497,13.28,0.056,121.1
2021-08-17T03:22:03,42.805,6.029,0.074,-0.036,0.004,107.0,104.0,104.0,13.4,1505.2,329.9,-0.8,1.8,2470.535,13.28,0.082,115.9
2021-08-17T03:25:03,42.805,6.029,0.057,-0.032,-0.021,106.0,105.0,102.0,13.4,1505.2,326.6,-0.8,1.8,2470.525,13.28,0.065,119.3
2021-08-17T03:28:03,42.805,6.029,0.051,-0.007,0.0,106.0,106.0,103.0,13.4,1505.2,325.0,-0.7,1.8,2470.508,13.28,0.051,97.8
2021-08-17T03:31:03,42.805,6.029,0.036,-0.031,0.027,107.0,106.0,103.0,13.4,1505.2,328.0,-0.7,1.8,2470.522,13.28,0.047,130.7
2021-08-17T03:34:03,42.805,6.029,0.044,-0.028,-0.016,105.0,105.0,103.0,13.4,1505.2,329.9,-0.7,1.8,2470.537,13.28,0.052,122.5
2021-08-17T03:37:03,42.805,6.029,0.048,-0.046,0.018,106.0,106.0,103.0,13.4,1505.2,328.8,-0.8,1.8,2470.52,13.28,0.066,133.8
2021-08-17T03:40:03,42.805,6.029,0.038,-0.029,-0.012,106.0,105.0,102.0,13.4,1505.2,328.7,-0.8,1.8,2470.539,13.28,0.047,127.3
2021-08-17T03:43:03,42.805,6.029,0.029,-0.023,-0.009,106.0,105.0,104.0,13.4,1505.2,324.9,-0.7,1.8,2470.532,13.28,0.037,128.4
2021-08-17T03:46:03,42.805,6.029,0.017,-0.027,-0.016,106.0,104.0,104.0,13.4,1505.2,328.8,-0.8,1.9,2470.521,13.28,0.031,147.8
2021-08-17T03:49:03,42.805,6.029,0.057,-0.041,0.002,106.0,106.0,103.0,13.4,1505.2,329.4,-0.8,1.8,2470.561,13.28,0.07,125.7
2021-08-17T03:52:03,42.805,6.029,0.027,-0.018,0.003,106.0,105.0,102.0,13.4,1505.2,327.8,-0.7,1.8,2470.537,13.28,0.032,123.7
2021-08-17T03:55:03,42.805,6.029,0.066,-0.038,0.011,106.0,106.0,103.0,13.4,1505.2,330.9,-0.8,1.8,2470.526,13.28,0.076,119.9
2021-08-17T03:58:03,42.805,6.029,0.037,-0.032,0.01,107.0,106.0,103.0,13.3,1505.2,330.8,-0.7,1.8,2470.536,13.28,0.048,130.9
2021-08-17T04:04:03,42.805,6.029,0.041,-0.025,0.016,106.0,105.0,104.0,13.4,1505.2,329.1,-0.7,1.8,2470.562,13.28,0.048,121.4
2021-08-17T04:07:03,42.805,6.029,0.039,-0.035,-0.016,106.0,106.0,104.0,13.3,1505.2,326.6,-0.7,1.8,2470.562,13.28,0.052,131.9
2021-08-17T04:10:03,42.805,6.029,0.057,-0.032,0.013,105.0,105.0,104.0,13.4,1505.2,325.9,-0.8,1.8,2470.55,13.28,0.065,119.3
2021-08-17T04:13:03,42.805,6.029,0.034,-0.024,0.003,107.0,106.0,103.0,13.4,1505.2,327.3,-0.8,1.8,2470.585,13.28,0.041,125.2
2021-08-17T04:16:03,42.805,6.029,0.034,-0.023,-0.006,105.0,106.0,104.0,13.3,1505.2,326.1,-0.7,1.8,2470.582,13.28,0.041,124.1
2021-08-17T04:19:03,42.805,6.029,0.031,-0.033,-0.023,106.0,105.0,103.0,13.4,1505.2,326.1,-0.7,1.8,2470.556,13.28,0.045,136.8
2021-08-17T04:22:03,42.805,6.029,0.038,-0.026,-0.009,106.0,105.0,104.0,13.3,1505.2,328.7,-0.7,1.8,2470.535,13.28,0.046,124.4
2021-08-17T04:25:03,42.805,6.029,0.024,-0.031,-0.004,107.0,107.0,103.0,13.3,1505.2,330.7,-0.7,1.8,2470.548,13.28,0.039,142.3
2021-08-17T04:28:03,42.805,6.029,0.031,-0.023,0.0,105.0,106.0,103.0,13.3,1505.2,327.0,-0.8,1.8,2470.544,13.28,0.038,126.6
2021-08-17T04:31:03,42.805,6.029,0.039,-0.041,-0.006,107.0,105.0,103.0,13.4,1505.2,325.8,-0.8,1.9,2470.556,13.28,0.056,136.4
2021-08-17T04:34:03,42.805,6.029,0.029,-0.015,-0.004,105.0,106.0,103.0,13.4,1505.2,328.1,-0.8,1.8,2470.571,13.28,0.032,117.4
2021-08-17T04:37:03,42.805,6.029,0.028,-0.038,-0.017,107.0,105.0,103.0,13.3,1505.2,328.8,-0.7,1.8,2470.554,13.28,0.047,143.6
2021-08-17T04:40:03,42.805,6.029,0.052,-0.036,0.003,107.0,106.0,103.0,13.4,1505.2,327.7,-0.8,1.8,2470.566,13.28,0.063,124.7
2021-08-17T04:43:03,42.805,6.029,0.033,-0.053,0.022,106.0,106.0,103.0,13.4,1505.2,329.5,-0.8,1.8,2470.577,13.28,0.062,148.1
2021-08-17T04:46:03,42.805,6.029,0.043,-0.06,-0.01,106.0,106.0,103.0,13.4,1505.2,326.3,-0.7,1.8,2470.555,13.28,0.073,144.4
2021-08-17T04:49:03,42.805,6.029,0.053,-0.033,0.02,106.0,105.0,103.0,13.4,1505.2,328.5,-0.8,1.8,2470.574,13.28,0.062,121.9
2021-08-17T04:52:03,42.805,6.029,0.044,-0.019,-0.005,106.0,104.0,104.0,13.4,1505.2,326.6,-0.7,1.8,2470.566,13.28,0.047,113.4
2021-08-17T04:55:03,42.805,6.029,0.02,-0.032,-0.011,105.0,107.0,102.0,13.3,1505.2,328.9,-0.8,1.8,2470.577,13.28,0.037,148.0
2021-08-17T04:58:03,42.805,6.029,0.052,-0.027,0.003,106.0,105.0,104.0,13.4,1505.2,327.0,-0.7,1.8,2470.563,13.28,0.058,117.4
2021-08-17T05:04:03,42.805,6.029,0.044,-0.029,0.001,105.0,105.0,103.0,13.3,1505.2,329.7,-0.8,1.8,2470.591,13.28,0.052,123.4
2021-08-17T05:07:03,42.805,6.029,0.057,-0.056,0.043,106.0,106.0,103.0,13.3,1505.2,329.9,-0.8,1.8,2470.529,13.28,0.079,134.5
2021-08-17T05:10:03,42.805,6.029,0.057,-0.04,0.0,107.0,106.0,103.0,13.3,1505.2,327.0,-0.7,1.8,2470.547,13.28,0.069,125.1
2021-08-17T05:13:03,42.805,6.029,0.041,-0.025,-0.021,107.0,105.0,103.0,13.4,1505.2,328.0,-0.7,1.8,2470.546,13.28,0.048,121.4
2021-08-17T05:16:03,42.805,6.029,0.036,-0.041,0.016,105.0,105.0,103.0,13.3,1505.2,327.1,-0.8,1.8,2470.554,13.28,0.054,138.7
2021-08-17T05:19:03,42.805,6.029,0.029,-0.045,-0.015,106.0,105.0,104.0,13.4,1505.2,325.8,-0.8,1.8,2470.573,13.28,0.053,147.2
2021-08-17T05:22:03,42.805,6.029,0.021,-0.036,-0.023,106.0,105.0,103.0,13.4,1505.2,328.5,-0.7,1.8,2470.566,13.28,0.041,149.7
2021-08-17T05:25:03,42.805,6.029,0.043,-0.03,-0.011,106.0,105.0,103.0,13.4,1505.2,325.7,-0.7,1.8,2470.533,13.28,0.052,124.9
2021-08-17T05:28:03,42.805,6.029,0.028,-0.003,0.024,106.0,106.0,103.0,13.3,1505.2,329.0,-0.8,1.8,2470.509,13.28,0.028,96.1
2021-08-17T05:31:03,42.805,6.029,0.038,-0.016,-0.003,106.0,105.0,103.0,13.3,1505.2,327.1,-0.7,1.8,2470.538,13.28,0.041,112.8
2021-08-17T05:34:03,42.805,6.029,0.034,-0.045,-0.01,107.0,105.0,103.0,13.4,1505.2,330.7,-0.8,1.8,2470.51,13.28,0.056,142.9
2021-08-17T05:37:03,42.805,6.029,0.073,-0.04,-0.007,106.0,105.0,103.0,13.4,1505.2,325.2,-0.7,1.9,2470.557,13.28,0.083,118.7
2021-08-17T05:40:03,42.805,6.029,0.026,-0.043,0.0,106.0,104.0,104.0,13.4,1505.2,327.8,-0.8,1.9,2470.519,13.28,0.05,148.8
2021-08-17T05:43:03,42.805,6.029,0.029,-0.052,0.004,106.0,105.0,103.0,13.3,1505.2,329.9,-0.7,1.8,2470.53,13.28,0.059,150.9
2021-08-17T05:46:03,42.805,6.029,0.032,-0.039,0.033,106.0,106.0,103.0,13.3,1505.2,325.3,-0.7,1.8,2470.504,13.28,0.05,140.6
2021-08-17T05:49:03,42.805,6.029,0.033,-0.037,-0.008,106.0,107.0,104.0,13.4,1505.2,328.4,-0.8,1.8,2470.513,13.28,0.049,138.3
2021-08-17T05:52:03,42.805,6.029,0.034,-0.019,-0.013,106.0,107.0,103.0,13.4,1505.2,327.8,-0.8,1.8,2470.502,13.28,0.038,119.2
2021-08-17T05:55:03,42.805,6.029,0.038,-0.032,-0.014,106.0,106.0,103.0,13.4,1505.2,329.6,-0.8,1.8,2470.536,13.28,0.049,130.1
2021-08-17T05:58:03,42.805,6.029,0.025,-0.023,-0.032,107.0,106.0,104.0,13.4,1505.2,330.5,-0.8,1.8,2470.456,13.28,0.033,132.6
2021-08-17T06:04:03,42.805,6.029,0.049,-0.015,-0.012,105.0,106.0,104.0,13.4,1505.2,327.3,-0.7,1.8,2470.507,13.28,0.051,107.0
2021-08-17T06:07:03,42.805,6.029,0.027,-0.04,-0.005,106.0,106.0,103.0,13.4,1505.2,329.7,-0.7,1.8,2470.535,13.28,0.048,146.0
2021-08-17T06:10:03,42.805,6.029,0.055,-0.025,-0.019,106.0,105.0,104.0,13.4,1505.2,326.0,-0.7,1.8,2470.546,13.28,0.06,114.4
2021-08-17T06:13:03,42.805,6.029,0.046,-0.027,-0.001,105.0,105.0,103.0,13.3,1505.2,326.5,-0.8,1.8,2470.543,13.28,0.053,120.4
2021-08-17T06:16:03,42.805,6.029,0.019,-0.03,-0.002,107.0,106.0,103.0,13.4,1505.2,327.6,-0.8,1.8,2470.492,13.28,0.035,147.7
2021-08-17T06:19:03,42.805,6.029,0.031,-0.031,-0.011,105.0,105.0,104.0,13.3,1505.2,326.6,-0.7,1.8,2470.53,13.28,0.043,135.0
2021-08-17T06:22:03,42.805,6.029,0.035,-0.036,-0.026,107.0,106.0,103.0,13.4,1505.2,329.8,-0.7,1.8,2470.494,13.28,0.05,135.8
2021-08-17T06:25:03,42.805,6.029,0.038,-0.022,0.013,106.0,106.0,104.0,13.4,1505.2,328.4,-0.8,1.8,2470.515,13.28,0.043,120.1
2021-08-17T06:28:03,42.805,6.029,0.031,-0.038,-0.018,106.0,106.0,103.0,13.4,1505.2,327.1,-0.8,1.8,2470.493,13.28,0.049,140.8
2021-08-17T06:31:03,42.805,6.029,0.043,-0.025,0.025,107.0,105.0,102.0,13.3,1505.2,330.4,-0.7,1.8,2470.528,13.28,0.049,120.2
2021-08-17T06:34:03,42.805,6.029,0.045,-0.013,0.026,106.0,105.0,103.0,13.4,1505.2,326.7,-0.8,1.8,2470.528,13.28,0.046,106.1
2021-08-17T06:37:03,42.805,6.029,0.031,-0.026,0.001,107.0,105.0,104.0,13.4,1505.2,325.6,-0.7,1.8,2470.506,13.28,0.04,130.0
2021-08-17T06:40:03,42.805,6.029,0.033,-0.043,0.0,106.0,105.0,104.0,13.3,1505.2,328.8,-0.8,1.8,2470.503,13.28,0.054,142.5
2021-08-17T06:43:03,42.805,6.029,0.03,-0.025,-0.013,107.0,105.0,104.0,13.4,1505.2,326.1,-0.8,1.8,2470.483,13.28,0.039,129.8
2021-08-17T06:46:03,42.805,6.029,0.024,-0.045,0.0,106.0,106.0,104.0,13.3,1505.2,328.1,-0.8,1.8,2470.525,13.28,0.051,151.9
2021-08-17T06:49:03,42.805,6.029,0.043,-0.03,-0.003,106.0,106.0,103.0,13.3,1505.2,325.8,-0.7,1.8,2470.49,13.28,0.052,124.9
2021-08-17T06:52:03,42.805,6.029,0.034,-0.038,0.0,106.0,106.0,102.0,13.4,1505.2,330.7,-0.8,1.8,2470.525,13.28,0.05,138.2
2021-08-17T06:55:03,42.805,6.029,0.035,-0.023,-0.01,106.0,105.0,103.0,13.3,1505.2,327.1,-0.8,1.8,2470.503,13.28,0.041,123.3
2021-08-17T06:58:03,42.805,6.029,0.029,-0.034,0.0,106.0,105.0,103.0,13.3,1505.2,326.1,-0.7,1.8,2470.487,13.28,0.044,139.5
2021-08-17T07:04:03,42.805,6.029,0.035,-0.055,-0.024,106.0,105.0,103.0,13.4,1505.2,327.8,-0.8,1.8,2470.499,13.28,0.065,147.5
2021-08-17T07:07:03,42.805,6.029,0.016,-0.043,-0.021,105.0,106.0,104.0,13.4,1505.2,329.8,-0.7,1.8,2470.526,13.28,0.045,159.6
2021-08-17T07:10:03,42.805,6.029,0.039,-0.036,-0.01,105.0,106.0,103.0,13.4,1505.2,325.4,-0.7,1.8,2470.505,13.28,0.053,132.7
2021-08-17T07:13:03,42.805,6.029,0.023,-0.041,0.0,106.0,106.0,103.0,13.4,1505.2,327.1,-0.8,1.8,2470.5,13.28,0.047,150.7
2021-08-17T07:16:03,42.805,6.029,0.021,-0.039,0.005,106.0,106.0,104.0,13.4,1505.2,331.1,-0.8,1.8,2470.513,13.28,0.044,151.7
2021-08-17T07:19:03,42.805,6.029,0.024,-0.027,0.013,106.0,105.0,104.0,13.4,1505.2,325.8,-0.8,1.8,2470.476,13.28,0.036,138.4
2021-08-17T07:22:03,42.805,6.029,0.042,-0.044,-0.037,107.0,105.0,104.0,13.3,1505.2,325.5,-0.8,1.8,2470.514,13.28,0.06,136.3
2021-08-17T07:25:03,42.805,6.029,0.028,-0.052,-0.021,105.0,105.0,103.0,13.4,1505.2,327.2,-0.7,1.8,2470.487,13.28,0.059,151.7
2021-08-17T07:28:03,42.805,6.029,0.047,-0.019,0.004,106.0,106.0,103.0,13.4,1505.2,328.2,-0.7,1.8,2470.507,13.28,0.05,112.0
2021-08-17T07:31:03,42.805,6.029,0.027,-0.028,-0.021,106.0,106.0,104.0,13.4,1505.2,326.1,-0.8,1.8,2470.486,13.28,0.038,136.0
2021-08-17T07:34:03,42.805,6.029,0.033,-0.028,-0.01,107.0,104.0,103.0,13.4,1505.2,325.2,-0.7,1.8,2470.467,13.28,0.043,130.3
2021-08-17T07:37:03,42.805,6.029,0.04,-0.025,0.013,105.0,105.0,103.0,13.4,1505.2,329.6,-0.7,1.8,2470.482,13.28,0.047,122.0
2021-08-17T07:40:03,42.805,6.029,0.032,-0.05,-0.001,106.0,107.0,103.0,13.4,1505.2,327.2,-0.8,1.8,2470.477,13.28,0.059,147.4
2021-08-17T07:43:03,42.805,6.029,0.038,-0.04,0.006,106.0,107.0,103.0,13.4,1505.2,326.6,-0.7,1.9,2470.474,13.28,0.055,136.5
2021-08-17T07:46:03,42.805,6.029,0.027,-0.029,-0.029,106.0,105.0,104.0,13.4,1505.2,328.4,-0.8,1.8,2470.489,13.28,0.039,137.0
2021-08-17T07:49:03,42.805,6.029,0.041,-0.04,-0.023,106.0,104.0,105.0,13.4,1505.2,330.2,-0.8,1.8,2470.45,13.28,0.057,134.3
2021-08-17T07:52:03,42.805,6.029,0.017,-0.037,-0.006,106.0,107.0,104.0,13.4,1505.2,330.1,-0.7,1.8,2470.462,13.28,0.04,155.3
2021-08-17T07:55:03,42.805,6.029,0.051,-0.029,-0.004,106.0,104.0,104.0,13.4,1505.2,326.8,-0.8,1.8,2470.488,13.28,0.058,119.6
2021-08-17T07:58:03,42.805,6.029,0.043,-0.021,-0.013,106.0,105.0,104.0,13.3,1505.2,325.4,-0.8,1.8,2470.487,13.28,0.047,116.0
2021-08-17T08:04:03,42.805,6.029,0.037,-0.026,-0.051,107.0,106.0,103.0,13.4,1505.2,325.6,-0.8,1.8,2470.509,13.28,0.045,125.1
2021-08-17T08:07:03,42.805,6.029,0.026,-0.017,-0.018,106.0,105.0,104.0,13.4,1505.2,330.2,-0.7,1.8,2470.469,13.28,0.031,123.2
2021-08-17T08:10:03,42.805,6.029,0.041,-0.023,-0.012,106.0,105.0,104.0,13.4,1505.2,330.1,-0.8,1.8,2470.445,13.28,0.047,119.3
2021-08-17T08:13:03,42.805,6.029,0.025,-0.022,-0.015,106.0,105.0,103.0,13.4,1505.2,329.1,-0.8,1.9,2470.496,13.28,0.033,131.3
2021-08-17T08:16:03,42.805,6.029,0.026,-0.024,0.0,106.0,106.0,104.0,13.4,1505.2,327.5,-0.7,1.8,2470.468,13.28,0.035,132.7
2021-08-17T08:19:03,42.805,6.029,0.039,-0.016,-0.002,107.0,106.0,104.0,13.4,1505.2,329.1,-0.7,1.8,2470.432,13.28,0.042,112.3
2021-08-17T08:22:03,42.805,6.029,0.029,-0.002,-0.004,106.0,105.0,103.0,13.3,1505.2,329.9,-0.7,1.8,2470.446,13.28,0.029,93.9
2021-08-17T08:25:03,42.805,6.029,0.02,-0.017,0.008,105.0,106.0,104.0,13.3,1505.2,327.3,-0.7,1.8,2470.481,13.28,0.026,130.4
2021-08-17T08:28:03,42.805,6.029,0.043,-0.028,0.001,107.0,106.0,103.0,13.3,1505.2,329.3,-0.8,1.8,2470.436,13.28,0.051,123.1
2021-08-17T08:31:03,42.805,6.029,0.033,-0.02,0.003,106.0,106.0,103.0,13.4,1505.2,326.7,-0.8,1.8,2470.427,13.28,0.038,121.2
2021-08-17T08:34:03,42.805,6.029,0.039,-0.022,-0.032,107.0,106.0,104.0,13.4,1505.2,328.6,-0.7,1.8,2470.451,13.28,0.044,119.4
2021-08-17T08:37:03,42.805,6.029,0.035,-0.017,-0.012,106.0,106.0,103.0,13.4,1505.2,327.7,-0.8,1.8,2470.449,13.28,0.038,115.9
2021-08-17T08:40:03,42.805,6.029,0.027,-0.038,0.003,107.0,106.0,104.0,13.4,1505.2,326.6,-0.7,1.8,2470.426,13.28,0.046,144.6
2021-08-17T08:43:03,42.805,6.029,0.04,-0.041,0.004,106.0,106.0,103.0,13.4,1505.2,329.1,-0.7,1.8,2470.453,13.28,0.057,135.7
2021-08-17T08:46:03,42.805,6.029,0.026,-0.023,-0.004,106.0,107.0,103.0,13.4,1505.2,326.4,-0.8,1.8,2470.442,13.28,0.034,131.5
2021-08-17T08:49:03,42.805,6.029,0.042,-0.046,-0.002,107.0,105.0,104.0,13.4,1505.2,326.3,-0.8,1.8,2470.458,13.28,0.062,137.6
2021-08-17T08:52:03,42.805,6.029,0.03,-0.02,-0.007,106.0,106.0,104.0,13.4,1505.2,328.8,-0.8,1.8,2470.471,13.28,0.036,123.7
2021-08-17T08:55:03,42.805,6.029,0.044,-0.02,0.0,107.0,106.0,103.0,13.4,1505.2,326.3,-0.7,1.8,2470.479,13.28,0.048,114.4
2021-08-17T08:58:03,42.805,6.029,0.026,-0.03,0.015,106.0,107.0,104.0,13.4,1505.2,327.9,-0.7,1.8,2470.473,13.28,0.039,139.1
2021-08-17T09:04:03,42.805,6.029,0.028,-0.023,-0.021,106.0,106.0,104.0,13.4,1505.2,329.2,-0.8,1.8,2470.475,13.28,0.036,129.4
2021-08-17T09:07:03,42.805,6.029,0.021,-0.004,0.004,106.0,105.0,103.0,13.3,1505.2,327.2,-0.7,1.8,2470.478,13.28,0.021,100.8
2021-08-17T09:10:03,42.805,6.029,0.04,-0.044,0.0,106.0,105.0,104.0,13.4,1505.2,326.3,-0.8,1.8,2470.513,13.28,0.059,137.7
2021-08-17T09:13:03,42.805,6.029,0.013,-0.018,-0.048,107.0,105.0,104.0,13.3,1505.2,326.9,-0.7,1.8,2470.498,13.28,0.022,144.2
2021-08-17T09:16:03,42.805,6.029,0.018,-0.012,0.001,107.0,106.0,103.0,13.4,1505.2,325.5,-0.7,1.8,2470.489,13.28,0.021,123.7
2021-08-17T09:19:03,42.805,6.029,0.035,-0.043,-0.03,106.0,106.0,103.0,13.4,1505.2,326.2,-0.7,1.8,2470.512,13.28,0.055,140.9
2021-08-17T09:22:03,42.805,6.029,0.048,-0.038,-0.047,104.0,106.0,103.0,13.4,1505.2,326.4,-0.8,1.8,2470.494,13.28,0.061,128.4
2021-08-17T09:25:03,42.805,6.029,0.032,-0.041,-0.025,106.0,105.0,102.0,13.4,1505.2,330.7,-0.7,1.8,2470.477,13.28,0.052,142.0
2021-08-17T09:28:03,42.805,6.029,0.046,-0.05,-0.004,105.0,105.0,103.0,13.4,1505.2,330.7,-0.7,1.8,2470.506,13.28,0.067,137.4
2021-08-17T09:31:03,42.805,6.029,0.026,-0.015,-0.005,108.0,106.0,104.0,13.4,1505.2,328.4,-0.8,1.8,2470.466,13.28,0.03,120.0
2021-08-17T09:34:03,42.805,6.029,0.032,-0.024,0.004,107.0,106.0,103.0,13.4,1505.2,329.4,-0.7,1.8,2470.49,13.28,0.04,126.9
2021-08-17T09:37:03,42.805,6.029,0.015,-0.026,-0.001,105.0,105.0,105.0,13.3,1505.2,330.8,-0.7,1.8,2470.505,13.28,0.03,150.0
2021-08-17T09:40:03,42.805,6.029,0.025,-0.026,0.016,106.0,106.0,103.0,13.4,1505.2,327.6,-0.8,1.8,2470.49,13.28,0.036,136.1
2021-08-17T09:43:03,42.805,6.029,0.023,-0.033,-0.01,106.0,106.0,103.0,13.4,1505.2,326.7,-0.8,1.8,2470.49,13.28,0.04,145.1
2021-08-17T09:46:03,42.805,6.029,0.027,-0.032,-0.001,106.0,105.0,103.0,13.3,1505.2,330.9,-0.7,1.8,2470.498,13.28,0.041,139.8
2021-08-17T09:49:03,42.805,6.029,0.021,-0.028,-0.004,106.0,105.0,104.0,13.4,1505.2,330.9,-0.8,1.9,2470.491,13.28,0.035,143.1
2021-08-17T09:52:03,42.805,6.029,0.023,-0.02,0.015,105.0,106.0,103.0,13.4,1505.2,329.2,-0.8,1.8,2470.508,13.28,0.03,131.0
2021-08-17T09:55:03,42.805,6.029,0.015,-0.024,-0.014,106.0,105.0,103.0,13.4,1505.2,329.0,-0.7,1.8,2470.511,13.28,0.028,148.0